Temperature
17 17 17 17 17 17 17 17 17 17 17 17 17 17 17 17 17 17 17 17 16 16 16 16 16 16 16 16 16 16 16 16 16 16 16 16 16 15 15 15 15 15 15
16 16 17 17 17 17 17 17 17 17 17 17 17 17 17 17 17 17 17 16 16 16 16 16 16 15 16 15 15 15 16 16 16 16 15 15 15 15 15 15 15 15 15
16 16 16 16 16 17 17 17 17 17 17 17 17 17 17 17 17 17 16 16 16 16 16 16 16 15 15 16 16 16 16 15 16 16 15 15 15 15 15 15 15 15 15
16 16 16 16 16 16 17 17 17 17 16 17 17 17 17 17 17 17 16 16 16 16 16 15 15 16 16 16 16 16 16 15 15 15 14 14 14 15 15 15 15 15 15
16 16 16 16 16 16 16 16 17 16 16 16 17 17 17 17 17 16 16 16 16 16 16 15 16 16 16 16 16 16 16 15 15 15 14 14 14 15 15 15 15 15 14
16 16 16 16 16 16 16 16 16 16 16 16 16 16 16 16 16 16 16 16 16 16 16 16 16 16 16 16 16 16 16 15 15 14 14 14 14 15 15 15 14 14 14
16 16 16 16 16 16 16 16 16 16 16 16 16 16 16 16 16 16 16 16 16 16 16 16 16 16 16 16 16 15 15 15 14 14 14 14 14 15 15 14 14 14 14
15 15 15 16 16 16 16 16 16 16 16 16 16 16 16 16 16 16 16 16 16 16 16 16 16 16 16 15 15 15 15 15 15 14 14 14 15 14 14 14 14 14 14
15 15 15 16 15 15 15 15 15 15 16 16 16 16 16 16 16 15 15 16 16 16 16 16 16 15 15 15 15 15 15 15 14 14 14 14 14 14 14 14 14 14 14
15 15 15 15 15 15 15 15 15 15 15 15 15 15 15 15 15 15 15 15 15 15 16 16 16 15 15 15 15 15 15 15 14 14 14 14 15 14 14 14 14 14 14
15 15 15 15 15 15 15 15 15 15 15 15 15 15 15 15 15 15 15 15 15 15 15 15 15 15 15 15 15 15 15 14 14 14 14 14 14 14 14 14 14 14 14
14 14 15 15 15 15 15 15 15 15 15 15 15 15 15 15 15 15 15 15 15 15 15 15 15 15 15 15 15 15 14 14 14 14 14 15 14 14 14 14 14 14 14
13 14 14 14 15 15 15 15 15 15 15 15 15 15 15 14 15 14 15 15 15 15 15 15 15 15 15 14 15 15 14 14 14 14 14 14 14 14 14 14 14 14 14
13 13 14 14 14 14 14 14 15 15 15 15 15 15 14 14 14 14 15 15 14 14 14 15 14 14 14 14 14 14 14 14 14 14 14 14 14 14 14 14 14 14 14
12 13 13 13 14 14 14 14 14 14 14 15 15 15 14 14 14 14 15 15 14 14 14 14 14 14 14 14 14 14 14 14 14 14 14 14 14 14 14 14 14 14 14
12 12 13 13 13 13 14 14 14 14 14 14 14 15 14 14 14 14 14 14 14 14 14 14 14 14 14 14 14 14 14 14 14 14 14 14 14 14 14 14 14 14 14
11 12 12 13 13 13 13 13 14 14 14 14 14 14 14 14 14 14 14 14 14 14 14 14 14 14 14 14 14 14 14 14 14 14 14 14 14 14 14 14 14 13 13
11 11 12 12 12 13 13 13 13 13 13 14 14 14 14 14 14 14 14 14 14 14 14 14 14 14 14 14 14 14 14 14 14 14 14 14 14 14 14 14 13 13 13
10 11 11 12 12 12 12 13 13 13 13 13 13 13 14 14 14 14 14 14 14 14 14 14 14 14 14 14 14 14 14 14 14 14 13 14 14 14 14 14 13 13 13
10 10 10 11 11 11 12 12 12 13 13 13 13 13 13 13 13 14 14 14 13 13 13 13 13 13 13 13 13 13 13 13 13 13 13 13 14 14 13 13 13 13 13
9 9 10 10 10 11 11 11 11 12 12 13 13 13 13 13 13 13 13 13 13 13 13 13 13 13 13 13 12 12 13 13 13 13 13 13 13 13 13 13 13 13 13
8 9 9 9 10 10 10 11 11 11 12 12 12 12 12 13 13 13 13 13 13 13 13 13 13 12 12 12 12 12 12 12 13 13 13 13 13 13 13 13 13 13 13
8 8 9 9 9 9 10 10 10 10 11 11 11 12 12 12 12 12 12 12 13 13 12 12 12 12 12 12 12 12 12 13 13 13 13 13 13 13 13 13 13 13 13
7 8 8 8 9 9 9 9 10 10 10 10 11 11 12 12 12 12 12 12 12 12 12 12 12 12 12 12 12 12 12 13 13 13 13 13 13 13 13 13 13 13 13
7 7 8 8 8 9 9 9 9 9 9 10 10 11 11 11 11 12 12 12 12 12 12 12 12 12 12 12 11 11 11 12 12 12 12 12 13 13 13 13 13 13 13
6 7 7 8 8 8 8 8 8 9 9 9 10 10 10 11 11 11 11 11 11 11 11 12 12 12 12 12 11 11 11 11 12 12 12 12 12 13 13 13 13 13 12
Wind_Speed
2 4 12 14 16 16 16 16 17 18 19 19 18 17 17 16 16 15 15 15 15 15 15 15 15 14 15 14 14 14 15 16 16 16 15 15 14 14 13 11 10 14 14
5 5 12 14 16 16 16 16 17 17 18 18 18 18 17 17 16 16 15 15 15 15 15 15 15 15 15 15 15 15 16 16 16 15 14 14 13 13 13 12 12 13 13
6 5 11 13 15 16 16 16 17 17 18 18 18 18 17 17 16 16 15 15 15 15 15 16 15 15 15 15 15 15 15 15 14 12 9 11 12 12 12 12 13 13 13
5 4 9 13 14 15 16 16 17 17 17 18 18 18 17 17 16 15 15 15 15 16 16 16 16 15 15 15 14 14 14 14 12 7 8 10 11 11 11 12 12 12 12
3 3 7 11 13 15 16 17 17 17 18 18 17 17 17 17 16 16 16 15 15 16 16 16 16 15 15 14 14 13 13 12 9 6 9 9 10 11 11 11 11 11 11
3 2 6 10 12 13 15 17 18 18 18 18 17 17 17 17 17 16 16 15 16 16 16 16 16 15 14 13 13 13 12 11 8 8 9 9 10 10 10 10 10 10 10
4 2 4 8 10 12 14 16 17 17 18 18 18 18 18 17 17 17 16 16 17 17 17 16 16 15 14 13 12 12 11 8 7 8 8 8 10 10 10 9 9 9 9
6 4 3 6 9 11 13 15 17 18 18 18 18 18 18 18 18 17 17 17 18 18 17 17 15 14 13 13 12 12 11 8 7 7 7 8 9 8 9 8 8 8 7
7 5 4 5 8 10 11 13 15 17 18 18 18 18 18 18 18 18 18 18 18 18 18 17 15 14 13 12 12 12 10 7 6 6 6 7 8 7 7 7 7 6 6
7 6 6 5 6 9 11 12 14 16 17 18 19 18 18 18 18 18 19 19 19 19 18 17 16 14 13 12 12 12 11 8 6 7 6 7 7 7 7 6 6 5 5
8 7 6 6 5 7 9 11 14 15 16 18 18 18 18 17 17 18 19 20 20 19 19 18 16 14 13 12 12 12 11 7 7 5 5 7 6 7 7 6 5 4 4
11 9 7 7 7 7 7 9 11 13 15 17 16 17 17 16 15 16 18 20 20 20 18 18 16 15 13 11 12 12 9 8 7 6 5 6 7 7 7 6 5 4 3
11 11 9 8 8 7 6 7 7 9 11 15 16 17 16 14 13 14 14 16 18 18 17 16 16 14 13 11 11 11 9 8 6 6 7 7 7 8 8 7 6 5 5
12 12 11 9 8 8 8 7 7 7 8 10 14 16 14 10 10 11 11 14 15 15 14 14 13 14 13 12 12 11 10 8 7 6 7 8 8 8 8 8 7 7 6
13 12 11 10 10 9 8 7 8 9 9 11 12 14 15 11 11 11 11 12 14 14 14 13 13 13 12 12 12 11 10 10 9 8 7 10 9 9 9 9 8 8 7
13 13 12 11 11 10 8 8 9 9 10 11 11 14 16 14 12 11 12 12 12 13 14 13 13 11 10 10 11 11 11 10 10 10 8 9 11 10 10 10 10 9 8
14 13 12 12 11 11 11 10 9 9 10 10 11 15 17 16 14 12 11 11 12 14 14 12 13 11 10 10 11 11 10 11 10 10 10 9 10 12 12 12 11 10 9
13 13 13 11 11 11 11 10 9 9 10 10 12 13 16 18 17 13 11 11 13 13 12 10 10 10 10 10 10 10 9 9 11 11 10 10 9 9 12 13 13 11 10
12 12 12 11 11 11 11 9 9 9 10 10 11 12 14 17 17 14 11 11 13 11 11 11 11 11 11 10 10 9 9 9 10 10 11 11 11 10 10 12 14 13 12
11 11 11 11 10 10 8 8 8 9 9 9 10 11 14 14 16 15 11 12 12 11 11 12 12 11 10 9 8 8 9 9 9 10 11 10 10 11 11 11 11 12 14
10 10 10 10 9 8 7 8 8 9 9 9 10 12 14 14 15 14 11 12 12 12 13 14 12 12 10 8 7 7 9 10 11 10 10 10 10 11 12 12 11 10 11
10 10 10 10 9 9 7 7 8 8 8 9 9 11 13 14 14 13 14 12 13 12 14 14 13 10 8 10 8 7 7 9 10 10 10 10 11 10 11 13 13 12 11
10 9 8 9 8 9 9 6 6 7 7 8 9 10 11 13 14 13 14 13 13 13 12 14 14 14 11 11 10 8 7 8 7 8 12 11 11 10 10 11 13 13 13
10 8 8 8 8 8 8 8 9 9 9 10 9 9 11 12 13 14 14 14 14 13 13 14 14 12 12 11 10 10 9 5 6 6 8 10 11 11 11 9 11 13 14
9 7 6 7 7 7 7 8 9 9 9 8 8 10 10 10 12 13 14 14 14 14 14 14 14 14 12 12 10 9 10 8 8 7 7 7 8 10 10 11 10 11 13
8 6 5 5 5 5 6 7 8 10 9 9 10 9 9 8 9 11 12 13 14 13 14 14 14 15 14 14 12 11 9 9 10 9 9 8 8 8 9 9 10 10 11
Wind_Direction
322 203 170 174 166 161 158 157 158 157 157 157 157 156 155 154 152 149 147 146 146 144 140 138 135 131 126 122 118 114 108 104 101 97 94 92 92 91 88 85 91 87 82
315 214 170 176 170 165 161 159 158 157 159 160 160 160 160 159 157 154 152 151 151 148 144 142 137 131 126 120 115 112 108 105 103 101 102 97 91 91 88 77 73 86 84
318 210 176 175 173 169 165 161 160 160 162 163 164 164 165 164 162 160 158 156 154 150 147 142 137 131 126 122 119 116 113 111 109 114 127 110 100 94 92 89 87 87 86
319 206 183 172 174 173 169 166 164 165 166 167 168 169 169 169 167 165 163 161 156 151 146 143 138 133 130 127 125 122 118 116 118 142 118 108 107 101 99 96 92 88 87
333 202 178 172 178 177 174 171 170 172 172 172 172 173 173 172 170 169 167 163 157 152 148 145 141 138 135 133 131 128 125 123 132 136 109 108 107 107 101 98 96 93 88
351 215 178 173 183 183 181 178 176 178 179 178 177 177 177 175 174 173 170 164 157 152 149 147 146 145 143 140 137 135 132 137 155 120 118 116 111 112 107 103 99 97 93
352 311 200 183 187 187 187 186 183 184 184 184 183 182 181 179 178 176 171 165 160 156 154 153 152 151 149 148 145 142 141 156 143 128 125 118 113 118 115 110 105 99 95
345 325 259 198 197 194 193 191 192 191 190 190 189 187 186 185 183 179 174 169 165 162 160 159 159 157 157 156 153 149 151 169 146 137 133 122 119 125 120 116 112 107 101
346 337 304 238 212 202 200 200 198 199 197 195 193 192 191 189 184 181 176 174 171 169 166 165 165 162 162 160 158 156 160 183 161 145 140 131 136 138 131 128 125 119 114
344 340 328 293 245 225 215 208 205 204 203 200 199 196 193 190 188 183 180 179 177 174 171 170 170 168 165 163 162 161 165 185 166 155 154 139 150 152 147 144 139 133 129
333 331 324 311 284 250 233 219 212 209 207 205 204 199 195 197 195 190 189 181 180 177 176 175 174 171 167 165 165 165 174 190 172 170 161 143 170 165 163 161 155 150 145
317 317 312 305 293 272 247 231 221 219 213 211 211 204 205 204 201 196 187 182 182 179 178 179 176 171 178 177 173 178 193 194 183 181 166 167 185 180 177 178 178 176 176
302 301 299 297 290 278 258 242 228 223 220 216 214 208 207 205 202 197 187 186 187 183 185 183 181 187 193 187 183 193 198 194 196 188 177 186 200 195 193 195 197 200 207
294 292 290 286 280 274 264 249 237 228 223 219 214 210 207 203 203 199 194 191 191 191 191 189 195 194 197 195 195 197 197 201 202 198 185 193 210 209 205 208 210 213 219
289 287 285 280 273 268 261 250 239 231 227 222 217 213 210 207 205 201 198 195 194 193 192 194 197 196 198 199 202 204 204 207 207 204 196 200 216 219 215 216 219 221 223
285 283 281 277 270 264 255 249 243 237 231 227 220 216 213 211 207 202 201 198 198 196 195 197 199 197 200 201 205 209 212 211 214 212 210 203 213 221 221 221 224 226 223
281 280 275 271 267 260 254 249 243 238 234 229 224 218 215 212 209 205 204 200 199 198 197 198 201 201 203 203 208 211 215 216 217 217 215 215 212 216 222 223 225 224 225
279 275 272 267 263 257 251 248 243 237 232 230 226 221 217 213 209 205 205 204 200 197 196 197 199 201 203 206 210 211 215 216 222 222 219 219 219 217 217 221 225 226 227
278 273 270 265 262 259 252 246 242 238 234 231 226 222 219 214 210 206 207 205 200 197 198 198 201 205 207 208 212 214 218 219 221 223 225 224 223 223 222 213 219 225 226
279 272 269 264 260 258 251 246 242 237 234 231 227 222 218 215 211 208 207 206 200 199 199 200 201 204 209 207 211 219 224 226 225 225 227 225 223 223 224 218 216 220 222
283 272 265 262 259 252 245 240 236 235 230 226 226 224 220 217 212 209 207 206 203 204 204 202 201 201 204 199 205 222 229 230 230 227 226 225 222 221 222 221 221 220 219
288 276 264 258 256 249 244 243 241 242 239 230 225 224 221 219 216 212 211 208 205 207 207 204 201 202 202 196 201 207 221 224 225 227 225 225 225 219 221 222 221 221 223
293 279 268 259 253 248 246 242 239 237 238 231 225 223 220 220 218 216 216 214 211 209 209 207 205 204 204 202 206 205 212 225 217 214 221 223 223 220 221 221 223 223 225
299 286 274 265 256 250 243 237 230 229 231 231 228 224 220 219 219 218 219 217 215 213 213 210 207 208 207 206 209 223 233 236 217 217 213 220 223 225 224 220 221 221 222
311 301 288 276 265 255 244 238 234 236 237 235 232 228 225 223 223 221 221 220 218 217 215 212 209 208 210 213 209 210 224 230 229 228 228 218 220 224 224 223 222 222 222
330 322 310 294 283 270 254 247 240 239 237 233 229 227 226 225 223 223 224 224 223 221 220 217 213 213 212 214 215 214 214 215 217 222 233 227 227 224 220 223 224 223 222
Height
1511 1511 1511 1513 1515 1517 1519 1521 1523 1525 1526 1528 1529 1530 1531 1532 1533 1534 1535 1536 1536 1537 1538 1538 1539 1539 1539 1540 1540 1540 1541 1541 1541 1542 1542 1542 1542 1543 1543 1543 1543 1543 1542
1511 1511 1511 1513 1515 1517 1519 1521 1523 1525 1527 1529 1530 1531 1532 1533 1534 1535 1536 1537 1537 1538 1539 1539 1540 1540 1541 1541 1542 1542 1543 1543 1543 1544 1544 1544 1544 1544 1544 1544 1544 1544 1544
1510 1511 1511 1513 1515 1517 1519 1522 1524 1526 1527 1529 1531 1532 1533 1534 1535 1536 1537 1538 1538 1539 1540 1540 1541 1542 1542 1543 1543 1544 1544 1544 1545 1545 1546 1546 1546 1546 1546 1546 1546 1545 1545
1510 1510 1512 1513 1515 1517 1520 1522 1524 1526 1528 1529 1531 1532 1533 1535 1536 1536 1537 1538 1539 1540 1541 1542 1542 1543 1544 1544 1545 1545 1546 1546 1547 1547 1548 1548 1548 1547 1547 1547 1547 1547 1547
1510 1511 1512 1513 1515 1518 1520 1522 1524 1526 1527 1529 1531 1532 1533 1535 1536 1537 1538 1539 1540 1541 1542 1543 1543 1544 1545 1546 1546 1547 1547 1547 1548 1549 1549 1549 1549 1549 1549 1548 1548 1548 1548
1510 1511 1512 1513 1515 1517 1519 1521 1523 1525 1527 1529 1530 1532 1533 1534 1536 1537 1538 1539 1540 1541 1542 1543 1544 1545 1546 1547 1547 1548 1548 1549 1549 1550 1550 1551 1550 1550 1550 1550 1549 1549 1549
1510 1511 1512 1513 1515 1517 1519 1520 1522 1524 1526 1528 1530 1531 1533 1534 1535 1537 1538 1539 1540 1541 1543 1544 1545 1546 1547 1548 1548 1549 1549 1550 1551 1551 1551 1552 1551 1551 1551 1551 1550 1550 1550
1509 1510 1511 1512 1514 1516 1518 1519 1521 1523 1525 1527 1529 1530 1532 1533 1535 1536 1538 1539 1540 1542 1543 1544 1545 1546 1547 1548 1549 1550 1550 1551 1551 1552 1552 1552 1552 1552 1552 1552 1551 1551 1551
1509 1509 1510 1511 1513 1515 1516 1518 1520 1522 1523 1525 1527 1529 1531 1532 1534 1535 1537 1538 1540 1541 1543 1544 1545 1547 1548 1549 1550 1550 1551 1551 1553 1553 1553 1553 1552 1553 1553 1552 1552 1552 1552
1508 1508 1509 1510 1511 1513 1514 1516 1518 1520 1522 1524 1526 1527 1529 1531 1533 1534 1536 1538 1539 1541 1542 1544 1545 1547 1548 1549 1550 1551 1551 1552 1553 1553 1553 1553 1553 1553 1553 1553 1553 1552 1552
1506 1506 1507 1508 1509 1510 1512 1513 1515 1517 1519 1521 1523 1525 1527 1529 1531 1532 1534 1536 1538 1540 1542 1543 1545 1546 1548 1549 1550 1551 1551 1552 1553 1553 1553 1553 1553 1553 1553 1553 1553 1553 1552
1504 1504 1505 1505 1506 1507 1509 1510 1512 1514 1516 1518 1520 1522 1525 1527 1529 1530 1532 1534 1536 1539 1541 1542 1544 1545 1547 1548 1549 1550 1551 1552 1553 1553 1553 1553 1553 1553 1553 1553 1553 1553 1552
1501 1501 1502 1502 1503 1504 1505 1507 1509 1510 1512 1514 1517 1519 1521 1523 1526 1528 1529 1531 1534 1536 1538 1540 1542 1544 1545 1547 1548 1549 1550 1551 1552 1552 1552 1552 1552 1552 1552 1552 1552 1552 1552
1498 1497 1498 1499 1499 1500 1501 1503 1505 1506 1508 1510 1512 1515 1517 1519 1522 1524 1526 1528 1531 1533 1535 1537 1540 1541 1543 1545 1546 1548 1549 1549 1550 1551 1551 1551 1551 1552 1552 1552 1552 1551 1551
1493 1493 1494 1494 1495 1496 1497 1498 1500 1502 1504 1506 1508 1510 1513 1515 1518 1520 1522 1525 1527 1530 1532 1534 1537 1539 1541 1543 1544 1546 1547 1548 1549 1549 1549 1550 1550 1550 1550 1551 1551 1550 1550
1489 1489 1489 1489 1490 1491 1492 1493 1495 1497 1499 1501 1503 1506 1508 1511 1513 1516 1518 1521 1523 1526 1529 1531 1534 1536 1538 1540 1542 1543 1545 1546 1547 1547 1548 1548 1548 1548 1549 1549 1549 1549 1549
1484 1484 1484 1484 1485 1486 1487 1488 1490 1492 1494 1496 1498 1501 1503 1506 1509 1511 1514 1516 1519 1522 1525 1528 1530 1533 1535 1536 1538 1540 1542 1543 1544 1545 1545 1545 1546 1546 1546 1547 1547 1547 1547
1478 1478 1478 1479 1479 1480 1482 1483 1485 1486 1488 1490 1493 1495 1498 1501 1504 1506 1509 1512 1515 1518 1520 1523 1526 1528 1530 1532 1535 1537 1538 1539 1541 1542 1542 1543 1543 1543 1544 1544 1544 1545 1545
1473 1472 1472 1473 1474 1475 1476 1478 1479 1481 1483 1485 1487 1489 1492 1495 1498 1501 1504 1507 1510 1512 1515 1518 1521 1523 1526 1528 1531 1533 1534 1535 1537 1538 1539 1539 1540 1540 1541 1541 1541 1542 1542
1467 1466 1466 1467 1468 1469 1470 1472 1473 1475 1477 1479 1481 1483 1486 1489 1492 1496 1498 1501 1504 1507 1509 1512 1515 1518 1521 1524 1527 1528 1530 1532 1533 1534 1535 1536 1536 1537 1537 1538 1538 1538 1538
1461 1461 1460 1461 1462 1463 1464 1465 1467 1469 1471 1473 1475 1478 1480 1483 1487 1490 1493 1496 1499 1501 1504 1507 1510 1512 1516 1519 1523 1525 1526 1527 1528 1529 1530 1531 1532 1533 1533 1534 1534 1534 1534
1456 1455 1455 1456 1456 1458 1459 1460 1462 1464 1465 1467 1470 1472 1475 1478 1481 1484 1487 1490 1493 1496 1499 1501 1504 1507 1510 1513 1516 1520 1522 1524 1522 1523 1525 1526 1527 1528 1529 1530 1530 1530 1530
1452 1451 1451 1451 1452 1453 1454 1455 1456 1458 1460 1462 1464 1466 1469 1472 1475 1478 1481 1484 1487 1490 1492 1495 1498 1501 1504 1507 1510 1513 1516 1516 1518 1518 1518 1520 1521 1522 1523 1524 1525 1526 1526
1449 1448 1447 1447 1447 1448 1449 1450 1451 1453 1454 1456 1459 1461 1464 1467 1470 1473 1476 1479 1481 1484 1486 1489 1492 1495 1498 1500 1503 1506 1509 1510 1512 1512 1513 1514 1515 1516 1518 1518 1519 1520 1521
1447 1445 1444 1443 1443 1444 1444 1445 1447 1448 1450 1452 1454 1456 1459 1461 1464 1467 1470 1473 1475 1478 1480 1483 1486 1488 1491 1493 1496 1499 1502 1504 1505 1506 1506 1508 1508 1509 1511 1512 1513 1514 1515
1445 1442 1441 1440 1440 1440 1440 1441 1442 1443 1445 1447 1449 1451 1454 1456 1459 1461 1464 1467 1469 1472 1474 1476 1478 1481 1483 1486 1489 1491 1494 1496 1498 1500 1501 1501 1501 1503 1504 1505 1506 1508 1509